Location: Unspecified
(0.0000°N, 0.0000°E)
Time: 07:54:00
(UTC+00:00)

BlueWalker 3 - Pass Details

Date: 10 November 2025
Orbit: 456 x 463 km, 53.2° (Epoch: 13 November)

Event Time Altitude Azimuth Distance (km) Brightness Sun altitude
Rises 19:21:49 0° 224° (SW) 2,479 6.5 -23.3°
Reaches altitude 10° 19:24:01 10° 231° (SW) 1,604 5.4 -23.8°
Enters shadow 19:27:10 42° 289° (WNW) 669 2.8 -24.5°
